| time (UTC) | temp F | wind direction | speed knots | gust knots | rain 1hr in | rain 24hr in | rain mn in | humidity % | barometer mb |
| 20260506221619 | 52 | 0 | 0.9 | 5.2 | 0.00 | 0.00 | 0.00 | 50 | 1013.1 |
| 20260506220124 | 52 | 345 | 1.7 | 6.1 | 0.00 | 0.00 | 0.00 | 50 | 1013.0 |
| 20260506214557 | 52 | 360 | 2.6 | 7.0 | 0.00 | 0.00 | 0.00 | 47 | 1012.9 |
| 20260506213110 | 52 | 360 | 0.9 | 7.8 | 0.00 | 0.00 | 0.00 | 52 | 1012.9 |
| 20260506211600 | 52 | 360 | 1.7 | 5.2 | 0.00 | 0.00 | 0.00 | 51 | 1013.0 |
| 20260506210106 | 52 | 360 | 0.9 | 7.8 | 0.00 | 0.00 | 0.00 | 50 | 1012.9 |
| 20260506204607 | 52 | 360 | 1.7 | 7.8 | 0.00 | 0.00 | 0.00 | 50 | 1012.9 |
| 20260506203058 | 52 | 66 | 0.9 | 7.0 | 0.00 | 0.00 | 0.00 | 50 | 1013.1 |
| 20260506201558 | 52 | 360 | 2.6 | 7.0 | 0.00 | 0.00 | 0.00 | 48 | 1012.9 |
| 20260506194609 | 52 | 360 | 2.6 | 7.8 | 0.00 | 0.00 | 0.00 | 48 | 1013.2 |
| 20260506193104 | 52 | 360 | 3.5 | 8.7 | 0.00 | 0.00 | 0.00 | 50 | 1013.3 |
| 20260506191619 | 51 | 21 | 3.5 | 10.4 | 0.00 | 0.00 | 0.00 | 50 | 1013.5 |
| 20260506190058 | 51 | 360 | 2.6 | 7.0 | 0.00 | 0.00 | 0.00 | 51 | 1013.5 |
| 20260506184627 | 50 | 323 | 2.6 | 8.7 | 0.00 | 0.00 | 0.00 | 53 | 1013.3 |
| 20260506183114 | 50 | 352 | 4.3 | 9.6 | 0.00 | 0.00 | 0.00 | 52 | 1013.2 |
| 20260506181600 | 51 | 360 | 1.7 | 8.7 | 0.00 | 0.00 | 0.00 | 50 | 1013.2 |
| 20260506174557 | 50 | 333 | 1.7 | 5.2 | 0.00 | 0.00 | 0.00 | 53 | 1013.4 |
| 20260506173100 | 50 | 360 | 1.7 | 8.7 | 0.00 | 0.00 | 0.00 | 52 | 1013.8 |
| 20260506171607 | 50 | 360 | 2.6 | 10.4 | 0.00 | 0.00 | 0.00 | 54 | 1013.8 |
| 20260506170100 | 50 | 326 | 3.5 | 7.0 | 0.00 | 0.00 | 0.00 | 55 | 1013.5 |
| 20260506164555 | 49 | 343 | 2.6 | 8.7 | 0.00 | 0.00 | 0.00 | 57 | 1013.6 |
| 20260506163107 | 49 | 360 | 5.2 | 10.4 | 0.00 | 0.00 | 0.00 | 57 | 1013.5 |
| 20260506161557 | 49 | 17 | 5.2 | 12.2 | 0.00 | 0.00 | 0.00 | 56 | 1013.6 |
| 20260506160109 | 49 | 360 | 1.7 | 9.6 | 0.00 | 0.00 | 0.00 | 59 | 1013.6 |
| 20260506154558 | 49 | 360 | 1.7 | 8.7 | 0.00 | 0.01 | 0.00 | 57 | 1013.4 |
| 20260506153057 | 50 | 324 | 2.6 | 9.6 | 0.00 | 0.01 | 0.00 | 58 | 1013.2 |
| 20260506151557 | 49 | 279 | 3.5 | 9.6 | 0.00 | 0.01 | 0.00 | 61 | 1013.2 |
| 20260506150057 | 49 | 339 | 1.7 | 7.8 | 0.00 | 0.01 | 0.00 | 59 | 1013.1 |
| 20260506144604 | 48 | 355 | 2.6 | 8.7 | 0.00 | 0.01 | 0.00 | 66 | 1013.0 |
| 20260506143109 | 47 | 269 | 2.6 | 7.0 | 0.00 | 0.01 | 0.00 | 64 | 1012.8 |
| 20260506141602 | 47 | 315 | 1.7 | 9.6 | 0.00 | 0.01 | 0.00 | 67 | 1012.7 |
| 20260506140111 | 46 | 44 | 3.5 | 9.6 | 0.00 | 0.01 | 0.00 | 70 | 1012.5 |
| 20260506134604 | 47 | 360 | 2.6 | 7.0 | 0.00 | 0.01 | 0.00 | 71 | 1012.4 |
| 20260506133106 | 47 | 360 | 1.7 | 7.0 | 0.00 | 0.01 | 0.00 | 73 | 1012.2 |
| 20260506131618 | 46 | 355 | 1.7 | 7.8 | 0.00 | 0.01 | 0.00 | 71 | 1012.1 |
| 20260506124600 | 45 | 360 | 2.6 | 7.8 | 0.00 | 0.01 | 0.00 | 69 | 1011.8 |
| 20260506123058 | 44 | 360 | 1.7 | 7.0 | 0.00 | 0.01 | 0.00 | 70 | 1011.5 |
| 20260506121601 | 43 | 360 | 2.6 | 7.8 | 0.00 | 0.01 | 0.00 | 70 | 1011.4 |
| 20260506120105 | 43 | 0 | 1.7 | 7.0 | 0.00 | 0.01 | 0.00 | 70 | 1011.3 |
| 20260506114610 | 43 | 360 | 1.7 | 5.2 | 0.00 | 0.01 | 0.00 | 69 | 1011.2 |
| 20260506113057 | 42 | 312 | 1.7 | 4.3 | 0.00 | 0.01 | 0.00 | 70 | 1011.0 |
| 20260506111557 | 42 | 0 | 0.9 | 4.3 | 0.00 | 0.01 | 0.00 | 68 | 1010.8 |
| 20260506110058 | 43 | 333 | 0.9 | 2.6 | 0.00 | 0.01 | 0.00 | 67 | 1010.7 |
| 20260506104601 | 43 | 337 | 0.9 | 3.5 | 0.00 | 0.01 | 0.00 | 66 | 1010.3 |
| 20260506103100 | 44 | 346 | 1.7 | 3.5 | 0.00 | 0.01 | 0.00 | 64 | 1010.3 |
| 20260506101557 | 44 | 335 | 1.7 | 4.3 | 0.00 | 0.01 | 0.00 | 63 | 1010.3 |
| 20260506100114 | 45 | 327 | 2.6 | 4.3 | 0.00 | 0.01 | 0.00 | 62 | 1010.0 |
| 20260506094600 | 45 | 325 | 1.7 | 4.3 | 0.00 | 0.01 | 0.00 | 61 | 1009.7 |
| 20260506093100 | 45 | 355 | 1.7 | 7.8 | 0.00 | 0.01 | 0.00 | 61 | 1009.4 |
| 20260506091559 | 45 | 335 | 1.7 | 4.3 | 0.00 | 0.01 | 0.00 | 62 | 1009.4 |
| 20260506090100 | 45 | 355 | 1.7 | 4.3 | 0.00 | 0.01 | 0.00 | 62 | 1009.6 |
| 20260506084605 | 45 | 332 | 2.6 | 7.0 | 0.00 | 0.01 | 0.00 | 61 | 1009.2 |
| 20260506083058 | 46 | 265 | 1.7 | 5.2 | 0.00 | 0.01 | 0.00 | 61 | 1009.3 |
| 20260506081555 | 46 | 322 | 2.6 | 7.0 | 0.00 | 0.01 | 0.00 | 62 | 1009.2 |
| 20260506073057 | 46 | 335 | 0.9 | 7.0 | 0.00 | 0.01 | 0.00 | 60 | 1009.3 |
| 20260506071559 | 47 | 340 | 0.9 | 5.2 | 0.00 | 0.01 | 0.00 | 61 | 1009.2 |
| 20260506061556 | 47 | 306 | 1.7 | 5.2 | 0.00 | 0.01 | 0.00 | 61 | 1009.3 |
| 20260506050104 | 47 | 294 | 0.9 | 3.5 | 0.00 | 0.01 | 0.00 | 62 | 1009.4 |
| 20260506044557 | 48 | 315 | 0.9 | 3.5 | 0.00 | 0.06 | 0.00 | 62 | 1009.4 |
| 20260506043056 | 48 | 317 | 0.9 | 2.6 | 0.00 | 0.06 | 0.00 | 62 | 1009.2 |
| 20260506041602 | 48 | 19 | 0.0 | 4.3 | 0.00 | 0.06 | 0.00 | 62 | 1009.2 |
| 20260506040110 | 48 | 0 | 0.0 | 2.6 | 0.00 | 0.06 | 0.00 | 62 | 1009.3 |
| 20260506034601 | 48 | 303 | 0.0 | 2.6 | 0.00 | 0.06 | 0.06 | 62 | 1009.1 |
| 20260506033056 | 48 | 5 | 0.0 | 3.5 | 0.00 | 0.06 | 0.06 | 61 | 1009.2 |
| 20260506031602 | 48 | 309 | 0.9 | 2.6 | 0.00 | 0.06 | 0.06 | 60 | 1009.3 |
| 20260506030121 | 48 | 302 | 0.0 | 3.5 | 0.00 | 0.06 | 0.06 | 60 | 1009.2 |
| 20260506024601 | 48 | 0 | 0.0 | 3.5 | 0.00 | 0.06 | 0.06 | 59 | 1009.2 |
| 20260506023057 | 49 | 292 | 0.0 | 5.2 | 0.00 | 0.06 | 0.06 | 59 | 1009.2 |
| 20260506021601 | 49 | 0 | 0.0 | 1.7 | 0.00 | 0.06 | 0.06 | 57 | 1009.2 |
| 20260506020055 | 49 | 0 | 0.0 | 4.3 | 0.00 | 0.06 | 0.06 | 57 | 1009.1 |
| 20260506014612 | 49 | 270 | 0.9 | 3.5 | 0.00 | 0.06 | 0.06 | 57 | 1009.0 |
| 20260506013100 | 49 | 294 | 1.7 | 7.0 | 0.00 | 0.06 | 0.06 | 56 | 1008.9 |
| 20260506011556 | 50 | 303 | 0.9 | 6.1 | 0.00 | 0.06 | 0.06 | 55 | 1008.7 |
| 20260506010105 | 50 | 271 | 1.7 | 5.2 | 0.00 | 0.06 | 0.06 | 53 | 1008.7 |
| 20260506004556 | 50 | 267 | 0.9 | 5.2 | 0.00 | 0.06 | 0.06 | 52 | 1008.6 |
| 20260506003058 | 50 | 279 | 2.6 | 7.0 | 0.00 | 0.06 | 0.06 | 51 | 1008.7 |
| 20260506001601 | 51 | 229 | 2.6 | 7.8 | 0.00 | 0.06 | 0.06 | 50 | 1008.8 |
| 20260506000059 | 51 | 309 | 3.5 | 9.6 | 0.00 | 0.06 | 0.06 | 51 | 1008.6 |
| 20260505234557 | 52 | 292 | 2.6 | 7.8 | 0.00 | 0.06 | 0.06 | 50 | 1008.5 |
| 20260505233129 | 52 | 314 | 2.6 | 7.0 | 0.00 | 0.06 | 0.06 | 49 | 1008.3 |
| 20260505231600 | 52 | 330 | 2.6 | 7.8 | 0.00 | 0.06 | 0.06 | 49 | 1008.2 |
| 20260505230058 | 53 | 310 | 4.3 | 8.7 | 0.00 | 0.06 | 0.06 | 53 | 1008.2 |
| 20260505224558 | 53 | 275 | 1.7 | 7.0 | 0.00 | 0.06 | 0.06 | 55 | 1008.2 |
| 20260505223056 | 53 | 290 | 0.9 | 6.1 | 0.00 | 0.06 | 0.06 | 55 | 1008.2 |